#datetime,building,power
2023-02-04T00:00:00,mfh,48.31
2023-02-04T00:01:00,mfh,47.81
2023-02-04T00:02:00,mfh,47.74
2023-02-04T00:03:00,mfh,47.81
2023-02-04T00:04:00,mfh,47.82
2023-02-04T00:05:00,mfh,48.64
2023-02-04T00:06:00,mfh,48.11
2023-02-04T00:07:00,mfh,48.18
2023-02-04T00:08:00,mfh,48.20
2023-02-04T00:09:00,mfh,48.97
2023-02-04T00:10:00,mfh,48.88
2023-02-04T00:11:00,mfh,48.63
2023-02-04T00:12:00,mfh,47.89
2023-02-04T00:13:00,mfh,47.93
2023-02-04T00:14:00,mfh,47.84
2023-02-04T00:15:00,mfh,47.93
2023-02-04T00:16:00,mfh,47.24
2023-02-04T00:17:00,mfh,47.21
2023-02-04T00:18:00,mfh,47.32
2023-02-04T00:19:00,mfh,47.98
2023-02-04T00:20:00,mfh,59.85
2023-02-04T00:21:00,mfh,66.80
2023-02-04T00:22:00,mfh,74.53
2023-02-04T00:23:00,mfh,76.09
2023-02-04T00:24:00,mfh,74.83
2023-02-04T00:25:00,mfh,74.10
2023-02-04T00:26:00,mfh,73.72
2023-02-04T00:27:00,mfh,73.45
2023-02-04T00:28:00,mfh,73.59
2023-02-04T00:29:00,mfh,73.40
2023-02-04T00:30:00,mfh,73.17
2023-02-04T00:31:00,mfh,73.53
2023-02-04T00:32:00,mfh,72.05
2023-02-04T00:33:00,mfh,72.07
2023-02-04T00:34:00,mfh,71.34
2023-02-04T00:35:00,mfh,71.12
2023-02-04T00:36:00,mfh,71.03
2023-02-04T00:37:00,mfh,66.90
2023-02-04T00:38:00,mfh,53.51
2023-02-04T00:39:00,mfh,53.63
2023-02-04T00:40:00,mfh,53.73
2023-02-04T00:41:00,mfh,53.74
2023-02-04T00:42:00,mfh,47.12
2023-02-04T00:43:00,mfh,47.47
2023-02-04T00:44:00,mfh,47.27
2023-02-04T00:45:00,mfh,46.77
2023-02-04T00:46:00,mfh,47.31
2023-02-04T00:47:00,mfh,47.16
2023-02-04T00:48:00,mfh,47.85
2023-02-04T00:49:00,mfh,47.84
2023-02-04T00:50:00,mfh,47.85
2023-02-04T00:51:00,mfh,47.85
2023-02-04T00:52:00,mfh,48.65
2023-02-04T00:53:00,mfh,48.36
2023-02-04T00:54:00,mfh,47.97
2023-02-04T00:55:00,mfh,47.97
2023-02-04T00:56:00,mfh,48.40
2023-02-04T00:57:00,mfh,48.66
2023-02-04T00:58:00,mfh,48.83
2023-02-04T00:59:00,mfh,48.02
2023-02-04T01:00:00,mfh,48.25
2023-02-04T01:01:00,mfh,48.23
2023-02-04T01:02:00,mfh,48.16
2023-02-04T01:03:00,mfh,48.11
2023-02-04T01:04:00,mfh,47.50
2023-02-04T01:05:00,mfh,47.31
2023-02-04T01:06:00,mfh,47.34
2023-02-04T01:07:00,mfh,48.37
2023-02-04T01:08:00,mfh,48.69
2023-02-04T01:09:00,mfh,47.99
2023-02-04T01:10:00,mfh,48.01
2023-02-04T01:11:00,mfh,48.03
2023-02-04T01:12:00,mfh,48.08
2023-02-04T01:13:00,mfh,47.28
2023-02-04T01:14:00,mfh,48.13
2023-02-04T01:15:00,mfh,47.49
2023-02-04T01:16:00,mfh,48.12
2023-02-04T01:17:00,mfh,47.90
2023-02-04T01:18:00,mfh,47.97
2023-02-04T01:19:00,mfh,48.05
2023-02-04T01:20:00,mfh,47.80
2023-02-04T01:21:00,mfh,47.79
2023-02-04T01:22:00,mfh,47.86
2023-02-04T01:23:00,mfh,47.15
2023-02-04T01:24:00,mfh,47.08
2023-02-04T01:25:00,mfh,47.11
2023-02-04T01:26:00,mfh,48.33
2023-02-04T01:27:00,mfh,47.91
2023-02-04T01:28:00,mfh,48.07
2023-02-04T01:29:00,mfh,48.03
2023-02-04T01:30:00,mfh,48.27
2023-02-04T01:31:00,mfh,48.87
2023-02-04T01:32:00,mfh,48.49
2023-02-04T01:33:00,mfh,47.60
2023-02-04T01:34:00,mfh,47.38
2023-02-04T01:35:00,mfh,47.42
2023-02-04T01:36:00,mfh,48.03
2023-02-04T01:37:00,mfh,48.04
2023-02-04T01:38:00,mfh,47.87
2023-02-04T01:39:00,mfh,47.82
2023-02-04T01:40:00,mfh,48.47
2023-02-04T01:41:00,mfh,48.07
2023-02-04T01:42:00,mfh,48.96
2023-02-04T01:43:00,mfh,48.26
2023-02-04T01:44:00,mfh,48.36
2023-02-04T01:45:00,mfh,49.16
2023-02-04T01:46:00,mfh,49.21
2023-02-04T01:47:00,mfh,48.54
2023-02-04T01:48:00,mfh,48.54
2023-02-04T01:49:00,mfh,48.49
2023-02-04T01:50:00,mfh,48.44
2023-02-04T01:51:00,mfh,48.44
2023-02-04T01:52:00,mfh,47.72
2023-02-04T01:53:00,mfh,47.89
2023-02-04T01:54:00,mfh,48.53
2023-02-04T01:55:00,mfh,48.64
2023-02-04T01:56:00,mfh,48.77
2023-02-04T01:57:00,mfh,48.78
2023-02-04T01:58:00,mfh,48.76
2023-02-04T01:59:00,mfh,48.47
2023-02-04T02:00:00,mfh,49.15
2023-02-04T02:01:00,mfh,48.39
2023-02-04T02:02:00,mfh,48.56
2023-02-04T02:03:00,mfh,47.62
2023-02-04T02:04:00,mfh,48.15
2023-02-04T02:05:00,mfh,47.47
2023-02-04T02:06:00,mfh,48.81
2023-02-04T02:07:00,mfh,48.35
2023-02-04T02:08:00,mfh,48.34
2023-02-04T02:09:00,mfh,48.93
2023-02-04T02:10:00,mfh,48.47
2023-02-04T02:11:00,mfh,48.61
2023-02-04T02:12:00,mfh,47.88
2023-02-04T02:13:00,mfh,47.64
2023-02-04T02:14:00,mfh,47.56
2023-02-04T02:15:00,mfh,48.12
2023-02-04T02:16:00,mfh,48.16
2023-02-04T02:17:00,mfh,48.15
2023-02-04T02:18:00,mfh,48.76
2023-02-04T02:19:00,mfh,48.22
2023-02-04T02:20:00,mfh,48.55
2023-02-04T02:21:00,mfh,48.54
2023-02-04T02:22:00,mfh,48.01
2023-02-04T02:23:00,mfh,47.90
2023-02-04T02:24:00,mfh,47.78
2023-02-04T02:25:00,mfh,48.37
2023-02-04T02:26:00,mfh,48.16
2023-02-04T02:27:00,mfh,48.27
2023-02-04T02:28:00,mfh,48.88
2023-02-04T02:29:00,mfh,48.92
2023-02-04T02:30:00,mfh,48.83
2023-02-04T02:31:00,mfh,48.98
2023-02-04T02:32:00,mfh,48.43
2023-02-04T02:33:00,mfh,47.94
2023-02-04T02:34:00,mfh,48.01
2023-02-04T02:35:00,mfh,48.69
2023-02-04T02:36:00,mfh,48.83
2023-02-04T02:37:00,mfh,48.77
2023-02-04T02:38:00,mfh,48.81
2023-02-04T02:39:00,mfh,48.81
2023-02-04T02:40:00,mfh,48.96
2023-02-04T02:41:00,mfh,48.51
2023-02-04T02:42:00,mfh,47.89
2023-02-04T02:43:00,mfh,47.81
2023-02-04T02:44:00,mfh,48.01
2023-02-04T02:45:00,mfh,48.45
2023-02-04T02:46:00,mfh,48.59
2023-02-04T02:47:00,mfh,48.61
2023-02-04T02:48:00,mfh,48.63
2023-02-04T02:49:00,mfh,48.55
2023-02-04T02:50:00,mfh,48.51
2023-02-04T02:51:00,mfh,47.82
2023-02-04T02:52:00,mfh,47.86
2023-02-04T02:53:00,mfh,47.61
2023-02-04T02:54:00,mfh,48.89
2023-02-04T02:55:00,mfh,48.12
2023-02-04T02:56:00,mfh,48.09
2023-02-04T02:57:00,mfh,48.07
2023-02-04T02:58:00,mfh,48.09
2023-02-04T02:59:00,mfh,48.38
2023-02-04T03:00:00,mfh,48.42
2023-02-04T03:01:00,mfh,47.80
2023-02-04T03:02:00,mfh,47.77
2023-02-04T03:03:00,mfh,47.71
2023-02-04T03:04:00,mfh,48.62
2023-02-04T03:05:00,mfh,48.06
2023-02-04T03:06:00,mfh,48.09
2023-02-04T03:07:00,mfh,48.26
2023-02-04T03:08:00,mfh,48.25
2023-02-04T03:09:00,mfh,49.13
2023-02-04T03:10:00,mfh,48.13
2023-02-04T03:11:00,mfh,47.60
2023-02-04T03:12:00,mfh,47.58
2023-02-04T03:13:00,mfh,48.50
2023-02-04T03:14:00,mfh,49.53
2023-02-04T03:15:00,mfh,49.96
2023-02-04T03:16:00,mfh,49.13
2023-02-04T03:17:00,mfh,49.11
2023-02-04T03:18:00,mfh,49.07
2023-02-04T03:19:00,mfh,48.07
2023-02-04T03:20:00,mfh,48.08
2023-02-04T03:21:00,mfh,47.44
2023-02-04T03:22:00,mfh,47.52
2023-02-04T03:23:00,mfh,47.52
2023-02-04T03:24:00,mfh,48.13
2023-02-04T03:25:00,mfh,48.08
2023-02-04T03:26:00,mfh,48.81
2023-02-04T03:27:00,mfh,48.20
2023-02-04T03:28:00,mfh,48.40
2023-02-04T03:29:00,mfh,48.20
2023-02-04T03:30:00,mfh,47.47
2023-02-04T03:31:00,mfh,48.13
2023-02-04T03:32:00,mfh,47.30
2023-02-04T03:33:00,mfh,48.08
2023-02-04T03:34:00,mfh,48.07
2023-02-04T03:35:00,mfh,48.06
2023-02-04T03:36:00,mfh,48.04
2023-02-04T03:37:00,mfh,48.63
2023-02-04T03:38:00,mfh,48.07
2023-02-04T03:39:00,mfh,48.23
2023-02-04T03:40:00,mfh,47.53
2023-02-04T03:41:00,mfh,47.62
2023-02-04T03:42:00,mfh,51.80
2023-02-04T03:43:00,mfh,57.97
2023-02-04T03:44:00,mfh,58.33
2023-02-04T03:45:00,mfh,57.99
2023-02-04T03:46:00,mfh,57.77
2023-02-04T03:47:00,mfh,57.62
2023-02-04T03:48:00,mfh,57.93
2023-02-04T03:49:00,mfh,57.85
2023-02-04T03:50:00,mfh,57.15
2023-02-04T03:51:00,mfh,57.51
2023-02-04T03:52:00,mfh,57.55
2023-02-04T03:53:00,mfh,58.05
2023-02-04T03:54:00,mfh,58.20
2023-02-04T03:55:00,mfh,57.97
2023-02-04T03:56:00,mfh,57.90
2023-02-04T03:57:00,mfh,58.93
2023-02-04T03:58:00,mfh,58.71
2023-02-04T03:59:00,mfh,58.34
2023-02-04T04:00:00,mfh,57.83
2023-02-04T04:01:00,mfh,58.13
2023-02-04T04:02:00,mfh,58.49
2023-02-04T04:03:00,mfh,57.52
2023-02-04T04:04:00,mfh,57.91
2023-02-04T04:05:00,mfh,57.95
2023-02-04T04:06:00,mfh,57.87
2023-02-04T04:07:00,mfh,57.83
2023-02-04T04:08:00,mfh,57.85
2023-02-04T04:09:00,mfh,57.12
2023-02-04T04:10:00,mfh,57.32
2023-02-04T04:11:00,mfh,56.98
2023-02-04T04:12:00,mfh,57.66
2023-02-04T04:13:00,mfh,57.53
2023-02-04T04:14:00,mfh,57.55
2023-02-04T04:15:00,mfh,58.55
2023-02-04T04:16:00,mfh,57.63
2023-02-04T04:17:00,mfh,57.97
2023-02-04T04:18:00,mfh,57.81
2023-02-04T04:19:00,mfh,57.13
2023-02-04T04:20:00,mfh,57.07
2023-02-04T04:21:00,mfh,57.23
2023-02-04T04:22:00,mfh,57.72
2023-02-04T04:23:00,mfh,58.27
2023-02-04T04:24:00,mfh,57.76
2023-02-04T04:25:00,mfh,57.82
2023-02-04T04:26:00,mfh,57.76
2023-02-04T04:27:00,mfh,59.23
2023-02-04T04:28:00,mfh,58.55
2023-02-04T04:29:00,mfh,58.63
2023-02-04T04:30:00,mfh,58.91
2023-02-04T04:31:00,mfh,60.19
2023-02-04T04:32:00,mfh,60.52
2023-02-04T04:33:00,mfh,57.87
2023-02-04T04:34:00,mfh,59.00
2023-02-04T04:35:00,mfh,58.10
2023-02-04T04:36:00,mfh,58.52
2023-02-04T04:37:00,mfh,58.54
2023-02-04T04:38:00,mfh,57.33
2023-02-04T04:39:00,mfh,58.18
2023-02-04T04:40:00,mfh,58.33
2023-02-04T04:41:00,mfh,58.79
2023-02-04T04:42:00,mfh,58.94
2023-02-04T04:43:00,mfh,59.08
2023-02-04T04:44:00,mfh,58.31
2023-02-04T04:45:00,mfh,58.58
2023-02-04T04:46:00,mfh,58.10
2023-02-04T04:47:00,mfh,57.69
2023-02-04T04:48:00,mfh,57.52
2023-02-04T04:49:00,mfh,57.43
2023-02-04T04:50:00,mfh,57.90
2023-02-04T04:51:00,mfh,57.83
2023-02-04T04:52:00,mfh,57.77
2023-02-04T04:53:00,mfh,57.60
2023-02-04T04:54:00,mfh,57.91
2023-02-04T04:55:00,mfh,58.27
2023-02-04T04:56:00,mfh,57.27
2023-02-04T04:57:00,mfh,56.57
2023-02-04T04:58:00,mfh,56.51
2023-02-04T04:59:00,mfh,56.44
2023-02-04T05:00:00,mfh,57.16
2023-02-04T05:01:00,mfh,70.88
2023-02-04T05:02:00,mfh,70.18
2023-02-04T05:03:00,mfh,64.05
2023-02-04T05:04:00,mfh,63.90
2023-02-04T05:05:00,mfh,64.00
2023-02-04T05:06:00,mfh,63.32
2023-02-04T05:07:00,mfh,63.36
2023-02-04T05:08:00,mfh,63.29
2023-02-04T05:09:00,mfh,63.48
2023-02-04T05:10:00,mfh,64.00
2023-02-04T05:11:00,mfh,64.13
2023-02-04T05:12:00,mfh,64.15
2023-02-04T05:13:00,mfh,64.09
2023-02-04T05:14:00,mfh,64.08
2023-02-04T05:15:00,mfh,63.18
2023-02-04T05:16:00,mfh,63.02
2023-02-04T05:17:00,mfh,62.52
2023-02-04T05:18:00,mfh,62.19
2023-02-04T05:19:00,mfh,63.18
2023-02-04T05:20:00,mfh,63.02
2023-02-04T05:21:00,mfh,63.02
2023-02-04T05:22:00,mfh,63.90
2023-02-04T05:23:00,mfh,63.91
2023-02-04T05:24:00,mfh,64.14
2023-02-04T05:25:00,mfh,64.26
2023-02-04T05:26:00,mfh,63.37
2023-02-04T05:27:00,mfh,62.69
2023-02-04T05:28:00,mfh,62.28
2023-02-04T05:29:00,mfh,63.16
2023-02-04T05:30:00,mfh,63.09
2023-02-04T05:31:00,mfh,63.35
2023-02-04T05:32:00,mfh,63.22
2023-02-04T05:33:00,mfh,62.98
2023-02-04T05:34:00,mfh,63.23
2023-02-04T05:35:00,mfh,63.69
2023-02-04T05:36:00,mfh,62.84
2023-02-04T05:37:00,mfh,62.87
2023-02-04T05:38:00,mfh,62.56
2023-02-04T05:39:00,mfh,63.67
2023-02-04T05:40:00,mfh,62.99
2023-02-04T05:41:00,mfh,62.61
2023-02-04T05:42:00,mfh,62.80
2023-02-04T05:43:00,mfh,63.68
2023-02-04T05:44:00,mfh,61.87
2023-02-04T05:45:00,mfh,61.90
2023-02-04T05:46:00,mfh,62.00
2023-02-04T05:47:00,mfh,62.46
2023-02-04T05:48:00,mfh,62.58
2023-02-04T05:49:00,mfh,63.05
2023-02-04T05:50:00,mfh,62.63
2023-02-04T05:51:00,mfh,62.69
2023-02-04T05:52:00,mfh,62.57
2023-02-04T05:53:00,mfh,62.40
2023-02-04T05:54:00,mfh,62.52
2023-02-04T05:55:00,mfh,62.26
2023-02-04T05:56:00,mfh,61.93
2023-02-04T05:57:00,mfh,62.43
2023-02-04T05:58:00,mfh,62.60
2023-02-04T05:59:00,mfh,62.79
2023-02-04T06:00:00,mfh,62.72
2023-02-04T06:01:00,mfh,62.80
2023-02-04T06:02:00,mfh,62.71
2023-02-04T06:03:00,mfh,61.97
2023-02-04T06:04:00,mfh,61.69
2023-02-04T06:05:00,mfh,61.44
2023-02-04T06:06:00,mfh,62.07
2023-02-04T06:07:00,mfh,62.06
2023-02-04T06:08:00,mfh,61.97
2023-02-04T06:09:00,mfh,62.44
2023-02-04T06:10:00,mfh,62.47
2023-02-04T06:11:00,mfh,62.10
2023-02-04T06:12:00,mfh,63.03
2023-02-04T06:13:00,mfh,62.62
2023-02-04T06:14:00,mfh,62.32
2023-02-04T06:15:00,mfh,62.41
2023-02-04T06:16:00,mfh,62.94
2023-02-04T06:17:00,mfh,62.99
2023-02-04T06:18:00,mfh,61.96
2023-02-04T06:19:00,mfh,62.28
2023-02-04T06:20:00,mfh,62.18
2023-02-04T06:21:00,mfh,62.40
2023-02-04T06:22:00,mfh,61.81
2023-02-04T06:23:00,mfh,61.76
2023-02-04T06:24:00,mfh,61.83
2023-02-04T06:25:00,mfh,62.41
2023-02-04T06:26:00,mfh,62.71
2023-02-04T06:27:00,mfh,62.60
2023-02-04T06:28:00,mfh,62.75
2023-02-04T06:29:00,mfh,62.72
2023-02-04T06:30:00,mfh,62.28
2023-02-04T06:31:00,mfh,61.46
2023-02-04T06:32:00,mfh,61.39
2023-02-04T06:33:00,mfh,61.78
2023-02-04T06:34:00,mfh,73.42
2023-02-04T06:35:00,mfh,80.34
2023-02-04T06:36:00,mfh,81.19
2023-02-04T06:37:00,mfh,81.04
2023-02-04T06:38:00,mfh,80.74
2023-02-04T06:39:00,mfh,80.56
2023-02-04T06:40:00,mfh,79.51
2023-02-04T06:41:00,mfh,79.30
2023-02-04T06:42:00,mfh,79.26
2023-02-04T06:43:00,mfh,79.63
2023-02-04T06:44:00,mfh,79.07
2023-02-04T06:45:00,mfh,79.03
2023-02-04T06:46:00,mfh,78.77
2023-02-04T06:47:00,mfh,78.68
2023-02-04T06:48:00,mfh,78.67
2023-02-04T06:49:00,mfh,78.66
2023-02-04T06:50:00,mfh,74.39
2023-02-04T06:51:00,mfh,74.26
2023-02-04T06:52:00,mfh,67.25
2023-02-04T06:53:00,mfh,61.21
2023-02-04T06:54:00,mfh,61.29
2023-02-04T06:55:00,mfh,61.39
2023-02-04T06:56:00,mfh,61.40
2023-02-04T06:57:00,mfh,61.44
2023-02-04T06:58:00,mfh,61.68
2023-02-04T06:59:00,mfh,60.63
2023-02-04T07:00:00,mfh,60.30
2023-02-04T07:01:00,mfh,68.81
2023-02-04T07:02:00,mfh,80.72
2023-02-04T07:03:00,mfh,81.44
2023-02-04T07:04:00,mfh,81.43
2023-02-04T07:05:00,mfh,81.23
2023-02-04T07:06:00,mfh,81.03
2023-02-04T07:07:00,mfh,80.96
2023-02-04T07:08:00,mfh,80.09
2023-02-04T07:09:00,mfh,79.08
2023-02-04T07:10:00,mfh,78.92
2023-02-04T07:11:00,mfh,79.24
2023-02-04T07:12:00,mfh,79.12
2023-02-04T07:13:00,mfh,78.79
2023-02-04T07:14:00,mfh,78.71
2023-02-04T07:15:00,mfh,78.95
2023-02-04T07:16:00,mfh,78.94
2023-02-04T07:17:00,mfh,74.86
2023-02-04T07:18:00,mfh,74.26
2023-02-04T07:19:00,mfh,67.02
2023-02-04T07:20:00,mfh,67.61
2023-02-04T07:21:00,mfh,60.81
2023-02-04T07:22:00,mfh,61.50
2023-02-04T07:23:00,mfh,60.99
2023-02-04T07:24:00,mfh,61.19
2023-02-04T07:25:00,mfh,61.29
2023-02-04T07:26:00,mfh,61.57
2023-02-04T07:27:00,mfh,60.83
2023-02-04T07:28:00,mfh,61.10
2023-02-04T07:29:00,mfh,60.88
2023-02-04T07:30:00,mfh,61.52
2023-02-04T07:31:00,mfh,61.93
2023-02-04T07:32:00,mfh,61.74
2023-02-04T07:33:00,mfh,61.38
2023-02-04T07:34:00,mfh,61.36
2023-02-04T07:35:00,mfh,61.56
2023-02-04T07:36:00,mfh,61.00
2023-02-04T07:37:00,mfh,60.78
2023-02-04T07:38:00,mfh,60.78
2023-02-04T07:39:00,mfh,61.83
2023-02-04T07:40:00,mfh,62.30
2023-02-04T07:41:00,mfh,62.46
2023-02-04T07:42:00,mfh,62.31
2023-02-04T07:43:00,mfh,62.27
2023-02-04T07:44:00,mfh,62.34
2023-02-04T07:45:00,mfh,61.32
2023-02-04T07:46:00,mfh,60.69
2023-02-04T07:47:00,mfh,61.33
2023-02-04T07:48:00,mfh,60.75
2023-02-04T07:49:00,mfh,61.51
2023-02-04T07:50:00,mfh,61.50
2023-02-04T07:51:00,mfh,61.61
2023-02-04T07:52:00,mfh,62.31
2023-02-04T07:53:00,mfh,62.45
2023-02-04T07:54:00,mfh,62.40
2023-02-04T07:55:00,mfh,61.67
2023-02-04T07:56:00,mfh,61.44
2023-02-04T07:57:00,mfh,62.12
2023-02-04T07:58:00,mfh,61.16
2023-02-04T07:59:00,mfh,61.25
2023-02-04T08:00:00,mfh,61.32
2023-02-04T08:01:00,mfh,61.33
2023-02-04T08:02:00,mfh,61.23
2023-02-04T08:03:00,mfh,61.13
2023-02-04T08:04:00,mfh,60.38
2023-02-04T08:05:00,mfh,60.79
2023-02-04T08:06:00,mfh,60.79
2023-02-04T08:07:00,mfh,62.09
2023-02-04T08:08:00,mfh,61.24
2023-02-04T08:09:00,mfh,61.01
2023-02-04T08:10:00,mfh,60.86
2023-02-04T08:11:00,mfh,60.55
2023-02-04T08:12:00,mfh,60.45
2023-02-04T08:13:00,mfh,60.36
2023-02-04T08:14:00,mfh,60.59
2023-02-04T08:15:00,mfh,60.72
2023-02-04T08:16:00,mfh,61.36
2023-02-04T08:17:00,mfh,61.54
2023-02-04T08:18:00,mfh,61.76
2023-02-04T08:19:00,mfh,61.76
2023-02-04T08:20:00,mfh,61.74
2023-02-04T08:21:00,mfh,62.00
2023-02-04T08:22:00,mfh,61.61
2023-02-04T08:23:00,mfh,60.74
2023-02-04T08:24:00,mfh,60.68
2023-02-04T08:25:00,mfh,60.70
2023-02-04T08:26:00,mfh,61.31
2023-02-04T08:27:00,mfh,61.43
2023-02-04T08:28:00,mfh,61.35
2023-02-04T08:29:00,mfh,62.04
2023-02-04T08:30:00,mfh,62.17
2023-02-04T08:31:00,mfh,68.16
2023-02-04T08:32:00,mfh,67.73
2023-02-04T08:33:00,mfh,67.74
2023-02-04T08:34:00,mfh,67.52
2023-02-04T08:35:00,mfh,67.50
2023-02-04T08:36:00,mfh,67.94
2023-02-04T08:37:00,mfh,68.05
2023-02-04T08:38:00,mfh,67.91
2023-02-04T08:39:00,mfh,67.40
2023-02-04T08:40:00,mfh,68.26
2023-02-04T08:41:00,mfh,68.13
2023-02-04T08:42:00,mfh,68.28
2023-02-04T08:43:00,mfh,68.99
2023-02-04T08:44:00,mfh,68.65
2023-02-04T08:45:00,mfh,68.48
2023-02-04T08:46:00,mfh,68.29
2023-02-04T08:47:00,mfh,68.35
2023-02-04T08:48:00,mfh,68.32
2023-02-04T08:49:00,mfh,67.61
2023-02-04T08:50:00,mfh,67.78
2023-02-04T08:51:00,mfh,68.29
2023-02-04T08:52:00,mfh,68.10
2023-02-04T08:53:00,mfh,68.11
2023-02-04T08:54:00,mfh,68.50
2023-02-04T08:55:00,mfh,68.49
2023-02-04T08:56:00,mfh,68.72
2023-02-04T08:57:00,mfh,68.47
2023-02-04T08:58:00,mfh,68.53
2023-02-04T08:59:00,mfh,68.41
2023-02-04T09:00:00,mfh,68.44
2023-02-04T09:01:00,mfh,67.39
2023-02-04T09:02:00,mfh,67.52
2023-02-04T09:03:00,mfh,66.84
2023-02-04T09:04:00,mfh,67.59
2023-02-04T09:05:00,mfh,67.42
2023-02-04T09:06:00,mfh,78.88
2023-02-04T09:07:00,mfh,79.90
2023-02-04T09:08:00,mfh,80.08
2023-02-04T09:09:00,mfh,79.81
2023-02-04T09:10:00,mfh,79.50
2023-02-04T09:11:00,mfh,79.59
2023-02-04T09:12:00,mfh,79.37
2023-02-04T09:13:00,mfh,86.06
2023-02-04T09:14:00,mfh,86.63
2023-02-04T09:15:00,mfh,86.27
2023-02-04T09:16:00,mfh,86.31
2023-02-04T09:17:00,mfh,86.27
2023-02-04T09:18:00,mfh,85.77
2023-02-04T09:19:00,mfh,85.75
2023-02-04T09:20:00,mfh,85.35
2023-02-04T09:21:00,mfh,85.79
2023-02-04T09:22:00,mfh,85.67
2023-02-04T09:23:00,mfh,85.39
2023-02-04T09:24:00,mfh,85.39
2023-02-04T09:25:00,mfh,80.91
2023-02-04T09:26:00,mfh,80.61
2023-02-04T09:27:00,mfh,80.47
2023-02-04T09:28:00,mfh,81.34
2023-02-04T09:29:00,mfh,81.26
2023-02-04T09:30:00,mfh,81.17
2023-02-04T09:31:00,mfh,75.00
2023-02-04T09:32:00,mfh,85.71
2023-02-04T09:33:00,mfh,85.41
2023-02-04T09:34:00,mfh,85.64
2023-02-04T09:35:00,mfh,85.53
2023-02-04T09:36:00,mfh,85.56
2023-02-04T09:37:00,mfh,85.55
2023-02-04T09:38:00,mfh,85.59
2023-02-04T09:39:00,mfh,85.59
2023-02-04T09:40:00,mfh,85.21
2023-02-04T09:41:00,mfh,85.30
2023-02-04T09:42:00,mfh,85.14
2023-02-04T09:43:00,mfh,85.17
2023-02-04T09:44:00,mfh,85.22
2023-02-04T09:45:00,mfh,85.17
2023-02-04T09:46:00,mfh,85.39
2023-02-04T09:47:00,mfh,88.38
2023-02-04T09:48:00,mfh,88.38
2023-02-04T09:49:00,mfh,88.39
2023-02-04T09:50:00,mfh,88.50
2023-02-04T09:51:00,mfh,88.40
2023-02-04T09:52:00,mfh,88.42
2023-02-04T09:53:00,mfh,88.28
2023-02-04T09:54:00,mfh,88.61
2023-02-04T09:55:00,mfh,88.41
2023-02-04T09:56:00,mfh,88.32
2023-02-04T09:57:00,mfh,88.27
2023-02-04T09:58:00,mfh,88.29
2023-02-04T09:59:00,mfh,88.26
2023-02-04T10:00:00,mfh,88.30
2023-02-04T10:01:00,mfh,88.13
2023-02-04T10:02:00,mfh,88.23
2023-02-04T10:03:00,mfh,88.16
2023-02-04T10:04:00,mfh,88.14
2023-02-04T10:05:00,mfh,88.30
2023-02-04T10:06:00,mfh,88.25
2023-02-04T10:07:00,mfh,88.22
2023-02-04T10:08:00,mfh,88.21
2023-02-04T10:09:00,mfh,88.16
2023-02-04T10:10:00,mfh,88.28
2023-02-04T10:11:00,mfh,88.30
2023-02-04T10:12:00,mfh,88.34
2023-02-04T10:13:00,mfh,88.28
2023-02-04T10:14:00,mfh,88.28
2023-02-04T10:15:00,mfh,88.30
2023-02-04T10:16:00,mfh,88.33
2023-02-04T10:17:00,mfh,88.26
2023-02-04T10:18:00,mfh,88.24
2023-02-04T10:19:00,mfh,88.32
2023-02-04T10:20:00,mfh,88.47
2023-02-04T10:21:00,mfh,88.65
2023-02-04T10:22:00,mfh,88.67
2023-02-04T10:23:00,mfh,88.50
2023-02-04T10:24:00,mfh,88.32
2023-02-04T10:25:00,mfh,88.31
2023-02-04T10:26:00,mfh,88.37
2023-02-04T10:27:00,mfh,88.39
2023-02-04T10:28:00,mfh,88.41
2023-02-04T10:29:00,mfh,88.30
2023-02-04T10:30:00,mfh,88.46
2023-02-04T10:31:00,mfh,88.43
2023-02-04T10:32:00,mfh,88.54
2023-02-04T10:33:00,mfh,88.59
2023-02-04T10:34:00,mfh,88.65
2023-02-04T10:35:00,mfh,88.60
2023-02-04T10:36:00,mfh,88.66
2023-02-04T10:37:00,mfh,88.72
2023-02-04T10:38:00,mfh,88.73
2023-02-04T10:39:00,mfh,88.99
2023-02-04T10:40:00,mfh,87.54
2023-02-04T10:41:00,mfh,87.61
2023-02-04T10:42:00,mfh,87.53
2023-02-04T10:43:00,mfh,85.09
2023-02-04T10:44:00,mfh,85.37
2023-02-04T10:45:00,mfh,85.04
2023-02-04T10:46:00,mfh,85.12
2023-02-04T10:47:00,mfh,84.91
2023-02-04T10:48:00,mfh,84.93
2023-02-04T10:49:00,mfh,84.87
2023-02-04T10:50:00,mfh,85.39
2023-02-04T10:51:00,mfh,84.79
2023-02-04T10:52:00,mfh,89.28
2023-02-04T10:53:00,mfh,89.39
2023-02-04T10:54:00,mfh,89.40
2023-02-04T10:55:00,mfh,89.31
2023-02-04T10:56:00,mfh,89.23
2023-02-04T10:57:00,mfh,89.17
2023-02-04T10:58:00,mfh,89.35
2023-02-04T10:59:00,mfh,89.28
2023-02-04T11:00:00,mfh,89.12
2023-02-04T11:01:00,mfh,89.59
2023-02-04T11:02:00,mfh,89.34
2023-02-04T11:03:00,mfh,89.51
2023-02-04T11:04:00,mfh,89.41
2023-02-04T11:05:00,mfh,89.59
2023-02-04T11:06:00,mfh,89.47
2023-02-04T11:07:00,mfh,89.45
2023-02-04T11:08:00,mfh,89.41
2023-02-04T11:09:00,mfh,89.41
2023-02-04T11:10:00,mfh,89.34
2023-02-04T11:11:00,mfh,89.25
2023-02-04T11:12:00,mfh,89.23
2023-02-04T11:13:00,mfh,89.23
2023-02-04T11:14:00,mfh,89.17
2023-02-04T11:15:00,mfh,89.16
2023-02-04T11:16:00,mfh,89.17
2023-02-04T11:17:00,mfh,89.10
2023-02-04T11:18:00,mfh,88.91
2023-02-04T11:19:00,mfh,89.03
2023-02-04T11:20:00,mfh,89.13
2023-02-04T11:21:00,mfh,89.01
2023-02-04T11:22:00,mfh,88.82
2023-02-04T11:23:00,mfh,88.80
2023-02-04T11:24:00,mfh,88.80
2023-02-04T11:25:00,mfh,88.79
2023-02-04T11:26:00,mfh,88.76
2023-02-04T11:27:00,mfh,88.73
2023-02-04T11:28:00,mfh,88.76
2023-02-04T11:29:00,mfh,88.88
2023-02-04T11:30:00,mfh,88.70
2023-02-04T11:31:00,mfh,88.79
2023-02-04T11:32:00,mfh,88.83
2023-02-04T11:33:00,mfh,88.63
2023-02-04T11:34:00,mfh,88.50
2023-02-04T11:35:00,mfh,88.21
2023-02-04T11:36:00,mfh,88.42
2023-02-04T11:37:00,mfh,88.24
2023-02-04T11:38:00,mfh,88.25
2023-02-04T11:39:00,mfh,86.16
2023-02-04T11:40:00,mfh,86.31
2023-02-04T11:41:00,mfh,86.36
2023-02-04T11:42:00,mfh,86.63
2023-02-04T11:43:00,mfh,86.82
2023-02-04T11:44:00,mfh,86.53
2023-02-04T11:45:00,mfh,86.62
2023-02-04T11:46:00,mfh,86.40
2023-02-04T11:47:00,mfh,86.37
2023-02-04T11:48:00,mfh,86.49
2023-02-04T11:49:00,mfh,86.79
2023-02-04T11:50:00,mfh,86.47
2023-02-04T11:51:00,mfh,86.52
2023-02-04T11:52:00,mfh,86.52
2023-02-04T11:53:00,mfh,86.85
2023-02-04T11:54:00,mfh,86.65
2023-02-04T11:55:00,mfh,81.58
2023-02-04T11:56:00,mfh,81.95
2023-02-04T11:57:00,mfh,82.42
2023-02-04T11:58:00,mfh,81.74
2023-02-04T11:59:00,mfh,81.63
2023-02-04T12:00:00,mfh,81.23
2023-02-04T12:01:00,mfh,81.55
2023-02-04T12:02:00,mfh,81.94
2023-02-04T12:03:00,mfh,81.82
2023-02-04T12:04:00,mfh,81.95
2023-02-04T12:05:00,mfh,82.18
2023-02-04T12:06:00,mfh,82.22
2023-02-04T12:07:00,mfh,82.12
2023-02-04T12:08:00,mfh,82.06
2023-02-04T12:09:00,mfh,82.17
2023-02-04T12:10:00,mfh,86.16
2023-02-04T12:11:00,mfh,87.74
2023-02-04T12:12:00,mfh,89.00
2023-02-04T12:13:00,mfh,88.66
2023-02-04T12:14:00,mfh,88.56
2023-02-04T12:15:00,mfh,88.23
2023-02-04T12:16:00,mfh,88.27
2023-02-04T12:17:00,mfh,88.30
2023-02-04T12:18:00,mfh,88.19
2023-02-04T12:19:00,mfh,88.14
2023-02-04T12:20:00,mfh,88.31
2023-02-04T12:21:00,mfh,88.23
2023-02-04T12:22:00,mfh,88.05
2023-02-04T12:23:00,mfh,88.00
2023-02-04T12:24:00,mfh,88.01
2023-02-04T12:25:00,mfh,87.99
2023-02-04T12:26:00,mfh,87.80
2023-02-04T12:27:00,mfh,87.82
2023-02-04T12:28:00,mfh,87.92
2023-02-04T12:29:00,mfh,87.91
2023-02-04T12:30:00,mfh,87.97
2023-02-04T12:31:00,mfh,87.91
2023-02-04T12:32:00,mfh,87.91
2023-02-04T12:33:00,mfh,88.05
2023-02-04T12:34:00,mfh,88.06
2023-02-04T12:35:00,mfh,88.07
2023-02-04T12:36:00,mfh,88.09
2023-02-04T12:37:00,mfh,88.11
2023-02-04T12:38:00,mfh,88.23
2023-02-04T12:39:00,mfh,85.81
2023-02-04T12:40:00,mfh,85.68
2023-02-04T12:41:00,mfh,85.65
2023-02-04T12:42:00,mfh,85.68
2023-02-04T12:43:00,mfh,85.96
2023-02-04T12:44:00,mfh,86.06
2023-02-04T12:45:00,mfh,86.07
2023-02-04T12:46:00,mfh,86.37
2023-02-04T12:47:00,mfh,86.21
2023-02-04T12:48:00,mfh,85.88
2023-02-04T12:49:00,mfh,88.35
2023-02-04T12:50:00,mfh,88.65
2023-02-04T12:51:00,mfh,90.25
2023-02-04T12:52:00,mfh,90.25
2023-02-04T12:53:00,mfh,90.22
2023-02-04T12:54:00,mfh,90.21
2023-02-04T12:55:00,mfh,91.15
2023-02-04T12:56:00,mfh,91.31
2023-02-04T12:57:00,mfh,91.09
2023-02-04T12:58:00,mfh,91.06
2023-02-04T12:59:00,mfh,90.97
2023-02-04T13:00:00,mfh,90.94
2023-02-04T13:01:00,mfh,90.75
2023-02-04T13:02:00,mfh,90.70
2023-02-04T13:03:00,mfh,90.58
2023-02-04T13:04:00,mfh,90.48
2023-02-04T13:05:00,mfh,90.48
2023-02-04T13:06:00,mfh,90.49
2023-02-04T13:07:00,mfh,90.41
2023-02-04T13:08:00,mfh,90.40
2023-02-04T13:09:00,mfh,90.46
2023-02-04T13:10:00,mfh,89.53
2023-02-04T13:11:00,mfh,89.52
2023-02-04T13:12:00,mfh,89.50
2023-02-04T13:13:00,mfh,87.93
2023-02-04T13:14:00,mfh,87.93
2023-02-04T13:15:00,mfh,85.06
2023-02-04T13:16:00,mfh,85.08
2023-02-04T13:17:00,mfh,85.55
2023-02-04T13:18:00,mfh,85.11